Regional Weather Roundup
Issued by NWS

Home | Current Version | Previous Version | Graphics & Text | Print | Product List | Glossary On
Versions: 1 2 3 4 5 6 7 8 9 10 11 12 13 14 15 16 17 18 19 20 21 22 23 24 25 26 27 28 29 30 31 32 33 34 35 36 37 38 39 40 41 42 43 44 45 46 47 48 49 50
000
ASUS43 KLOT 291203
RWRIL

ILLINOIS REGIONAL WEATHER ROUNDUP
NATIONAL WEATHER SERVICE CHICAGO/ROMEOVILLE IL
700 AM CDT FRI JUL 29 2016

NOTE: "FAIR" INDICATES FEW OR NO CLOUDS BELOW 12,000 FEET WITH NO
SIGNIFICANT WEATHER AND/OR OBSTRUCTIONS TO VISIBILITY.

* THESE STATIONS ARE NOT UNDER NWS QUALITY CONTROL. THEY ALSO MAY NOT
  REPORT WEATHER SUCH AS PRECIPITATION OR FOG.

ILZ001-002-007-009-015-016-024-291300-
NORTHWEST ILLINOIS

CITY           SKY/WX    TMP DP  RH WIND       PRES   REMARKS
MOLINE         CLOUDY    72  68  87 CALM      29.91R
6HR MIN TEMP:  70; 6HR MAX TEMP:  72;

STERLING*      CLOUDY    69  68  96 E8        29.93R FOG
SAVANNA*       CLOUDY    68  65  89 NE3       29.94R
$$

ILZ003-004-008-010-011-017-018-291300-
NORTH CENTRAL ILLINOIS

CITY           SKY/WX    TMP DP  RH WIND       PRES   REMARKS
ROCKFORD       CLOUDY    71  65  81 NE9       29.95R
6HR MIN TEMP:  69; 6HR MAX TEMP:  71;

FREEPORT*      CLOUDY    65  63  91 NE5       29.97R
ROCHELLE*      CLOUDY    68  67  98 NE7       29.94S FOG
DE KALB*       CLOUDY    68  68  99 NE6       29.94S FOG
$$

ILZ005-006-012>014-019>023-291300-
NORTHEAST ILLINOIS

CITY           SKY/WX    TMP DP  RH WIND       PRES   REMARKS
CHICAGO-OHARE  PTSUNNY   71  68  90 N6        29.92R
6HR MIN TEMP:  70; 6HR MAX TEMP:  71;

CHICAGO-MIDWAY CLOUDY    73  69  87 N3        29.92R
6HR MIN TEMP:  70; 6HR MAX TEMP:  73;

AURORA         FOG       71  70  96 NE6       29.93R VSB 1/2
6HR MIN TEMP:  69; 6HR MAX TEMP:  71;

LANSING*       SUNNY     69  68  94 CALM      29.92R FOG
WAUKEGAN       CLOUDY    71  67  87 NE5       29.94R
6HR MIN TEMP:  69; 6HR MAX TEMP:  71;

DUPAGE AIRPORT CLOUDY    71  68  90 NE6       29.93R
6HR MIN TEMP:  70; 6HR MAX TEMP:  71;

KANKAKEE*      CLOUDY    69  68  95 CALM      29.92S
WHEELING       MOSUNNY   70  68  93 VRB3      29.94R
6HR MIN TEMP:  69; 6HR MAX TEMP:  70;

MORRIS*        CLOUDY    71  70  96 CALM      29.91S FOG
NORTHERLY ISL    N/A     73  69  87 MISG        N/A
$$

LMZ740>746-291300-
SOUTHERN LAKE MICHIGAN

STATION/POSITION SKY/WX   TEMP    WIND        PRES    VSBY  WAVE
                          AIR SEA DIR/SP/G                  HT/PER
                          (F)     (DEG/KT/KT) (MB)    (MI)  (FT/S)
SOUTHERN BUOY              72 75   70/ 16/ 19 1012.7          3/ 6
WILMETTE HARBOR            74 73   90/  4/  6   N/A           2/ 6
HARRISON CRIB              75      50/  5/  5   N/A
BURNHAM HARBOR             73      40/  5       N/A
CALUMET HARBOR             72      10/  2/  2 1012.3R
BURNS HARBOR               71     110/  5/  7 1013.2S
MICHIGAN CITY              68      90/  2/  3   N/A
MICHIGAN CITY 6N           72 77  120/  6/  8   N/A           2/ 6
ST. JOSEPH                 71 76  120/  8/ 10 1012.9R         2
$$

ILZ025>027-034>036-040-047-049-050-058-095>099-291300-
WEST-CENTRAL ILLINOIS

CITY           SKY/WX    TMP DP  RH WIND       PRES   REMARKS
QUINCY         CLEAR     66  66 100 NW5       29.94R
GALESBURG*     FOG       66  66  99 NW5       29.93R VSB 1/4
MACOMB*        FOG       65  65 100 CALM      29.96R VSB<1/4
JACKSONVILLE*  SUNNY     67  65  96 W3        29.93R
PITTSFIELD*    CLEAR     67  66  97 CALM      29.95R
$$

ILZ028>032-037-038-041>044-048-051>054-059>061-291300-
CENTRAL ILLINOIS

CITY           SKY/WX    TMP DP  RH WIND       PRES   REMARKS
BLOOMINGTON    MOSUNNY   69  67  93 CALM      29.93R
DECATUR        SUNNY     72  68  87 CALM      29.93R
PEORIA         CLOUDY    69  67  93 CALM      29.92R
6HR MIN TEMP:  67; 6HR MAX TEMP:  71;

LACON*         FOG       68  67  97 CALM      29.91R VSB 1/4
LINCOLN*       SUNNY     69  69  99 CALM      29.92S
SPRINGFIELD    MOSUNNY   68  66  93 CALM      29.93R
6HR MIN TEMP:  66; 6HR MAX TEMP:  73;

TAYLORVILLE    SUNNY     68  68 100 MISG      29.93R FOG
6HR MIN TEMP:  66; 6HR MAX TEMP:  71;

$$

ILZ033-039-045-046-055>057-062-063-291300-
EAST-CENTRAL ILLINOIS

CITY           SKY/WX    TMP DP  RH WIND       PRES   REMARKS
CHAMPAIGN      FOG       68  67  96 NW3       29.92R VSB 3/4
MATTOON        FOG       68  67  96 CALM      29.92R VSB 1/4
PARIS*         MOSUNNY   67  67 100 CALM      29.93R FOG
$$

ILZ079-100>102-291300-
SOUTHWEST ILLINOIS

CITY           SKY/WX    TMP DP  RH WIND       PRES   REMARKS
ALTON          MOSUNNY   70  68  94 NE6       29.92F
CAHOKIA*       SUNNY     74  70  87 CALM      29.92S
SPARTA*        SUNNY     73  71  95 N3        29.93R
$$

ILZ064>066-069>071-074>076-080>082-084>086-088>090-092>094-291300-
SOUTH-CENTRAL ILLINOIS

CITY           SKY/WX    TMP DP  RH WIND       PRES   REMARKS
CARBONDALE     MOSUNNY   71  70  96 CALM      29.93R
6HR MIN TEMP:  71; 6HR MAX TEMP:  72;

CAIRO*         SUNNY     73  72  96 CALM      29.93R
EFFINGHAM*     SUNNY     69  69 100 CALM      29.94R FOG
MARION         MOSUNNY   72  72 100 S6        29.93R
MT. VERNON     CLOUDY    72  66  83 MISG      29.92R
CENTRALIA*     CLOUDY    72  72  99 CALM      29.92R
SALEM*         CLOUDY    72  70  95 N6        29.93R FOG
METROPOLIS*    PTSUNNY   74  72  95 S5        29.94R
$$

ILZ067-068-072-073-078-083-087-091-291300-
SOUTHEAST ILLINOIS

CITY           SKY/WX    TMP DP  RH WIND       PRES   REMARKS
LAWRENCEVILLE  CLOUDY    69  69 100 S5        29.93R FOG
FLORA*         CLOUDY    71  70  98 CALM      29.93R FOG
FAIRFIELD*     PTSUNNY   70  70 100 CALM      29.92R FOG
HARRISBURG*    CLOUDY    71  71 100 CALM      29.93R FOG
ROBINSON*      FOG       69  69 100 CALM      29.93R VSB 1/4
CARMI*         PTSUNNY   72  72 100 CALM      29.92S FOG
$$

ABBREVIATIONS USED IN REMARKS
   TC - TEMPERATURE IN CELSIUS
  WCI - WIND CHILL INDEX
   HX - HEAT INDEX
  VSB - VISIBILITY
$$




USA.gov is the U.S. government's official web portal to all federal, state and local government web resources and services.